Location: *
(47.2969°N, 10.2930°E)
Time: 13:19:35
(UTC+00:00)

Cosmos 1697 Rocket - Visible Passes

Search period start: 06 August 2020 00:00
Search period end: 16 August 2020 00:00
Orbit: 834 x 842 km, 71.0° (Epoch: 06 August)

Date Brightness Start Highest point End Pass type
(mag) Time Alt. Az. Time Alt. Az. Time Alt. Az.
06 Aug 3.2 19:42:36 10° NNW 19:48:02 46° NE 19:52:40 14° SE visible
06 Aug 4.0 21:26:55 10° NW 21:31:48 31° WSW 21:34:24 21° SSW visible
07 Aug 3.3 19:26:26 10° NNW 19:31:49 44° NE 19:36:58 11° SE visible
07 Aug 3.9 21:10:40 10° NW 21:15:39 33° WSW 21:18:43 20° SSW visible
08 Aug 3.4 19:10:16 10° NNW 19:15:35 41° NE 19:20:52 10° SE visible
08 Aug 3.8 20:54:25 10° NW 20:59:30 36° WSW 21:03:04 18° SSW visible
09 Aug 3.8 20:38:11 10° NW 20:43:20 38° WSW 20:47:29 15° SSW visible
10 Aug 3.7 20:21:56 10° NW 20:27:11 41° WSW 20:31:56 12° S visible
11 Aug 3.6 20:05:43 10° NW 20:11:01 44° WSW 20:16:17 10° S visible
12 Aug 3.5 19:49:29 10° NW 19:54:51 47° WSW 20:00:11 10° S visible
13 Aug 3.5 19:33:16 10° NW 19:38:41 51° WSW 19:44:05 10° S visible
14 Aug 3.4 19:17:03 10° NW 19:22:31 54° WSW 19:27:57 10° S visible
15 Aug 3.3 19:00:50 10° NW 19:06:21 58° WSW 19:11:50 10° S visible
